Location: B?otnica
(50.4856°N, 18.4126°E)
Time: 01:53:00
(UTC+00:00)

Daily predictions for brighter satellites

Satellite Brightness Start Highest point End
(mag) Time Altitude Azimuth Time Altitude Azimuth Time Altitude Azimuth
CZ-4C R/B 4.4 02:01:56 21° ENE 02:01:56 21° ENE 02:04:06 10° NE
Cosmos 1844 Rocket 4.5 02:20:59 28° ENE 02:20:59 28° ENE 02:24:05 10° NE
ATLAS 5 CENTAUR R/B 4.5 02:35:42 11° ESE 02:35:42 11° ESE 02:37:08 10° E
Cosmos 2344 4.1 02:45:54 70° WNW 02:47:24 82° SW 03:00:16 10° SE
Cosmos 2263 Rocket 4.3 02:51:31 18° NNE 02:51:31 18° NNE 02:53:00 10° NNE
ATLAS 2AS CENTAUR R/B 3.1 02:52:20 67° N 02:52:20 67° N 02:59:16 10° NE
Cosmos 1844 4.4 02:55:56 49° E 02:55:56 49° E 03:00:32 10° NE
COSMOS 2455 3.6 03:06:03 36° SSE 03:07:59 48° ESE 03:13:46 10° NE
Cosmos 1833 Rocket 3.5 03:16:09 38° NNE 03:17:32 45° NE 03:22:55 10° SE
ALOS 3.6 03:15:51 10° NNE 03:18:27 32° NNE 03:18:27 32° NNE
Cosmos 2074 Rocket 4.0 03:16:11 10° S 03:22:22 77° E 03:28:36 10° NNE
Cosmos 2082 Rocket 3.6 03:20:00 23° N 03:22:28 33° NE 03:27:36 10° ESE
SL-4 R/B 3.6 03:31:08 30° SE 03:31:08 30° SE 03:33:07 10° ESE
Meteor 2-6 Rocket 4.4 03:33:43 56° S 03:33:43 56° S 03:38:03 10° S
Lacrosse 5 2.6 03:33:29 43° NNE 03:33:29 43° NNE 03:37:31 10° ENE
ATLAS 3B R/B 4.1 03:36:30 24° SSW 03:36:30 24° SSW 03:39:46 10° S
USA 307 3.4 03:46:24 53° SSE 03:46:24 53° SSE 03:49:52 10° SE
CZ-4C R/B 2.5 03:47:08 49° NNW 03:47:08 49° NNW 03:53:11 10° NE
ERBS 4.4 03:48:44 22° NE 03:48:44 22° NE 03:50:29 10° ENE
Cosmos 2184 Rocket 3.9 03:41:34 10° SSW 03:47:55 76° W 03:54:21 10° N
CZ-4B R/B 4.0 03:47:34 10° NNE 03:51:54 49° E 03:56:02 10° S
USA 308 3.3 03:52:49 55° S 03:52:49 55° S 03:56:30 10° SE
Cosmos 2278 Rocket 3.5 03:47:39 10° S 03:52:52 39° ESE 03:58:07 10° NE
COSMO-SKYMED 1 2.4 03:55:33 10° S 03:59:53 79° WSW 04:00:09 75° WNW
Cosmos 1898 Rocket 4.4 04:02:03 33° NNW 04:02:03 33° NNW 04:05:40 10° NNE
Cosmos 494 Rocket 4.1 03:59:43 29° NNW 04:02:23 72° ENE 04:07:29 10° SSE
FALCON 9 DEB 4.2 04:03:31 37° NE 04:03:31 37° NE 04:05:46 10° E
Cosmos 1844 Rocket 2.9 04:02:42 47° NW 04:02:44 47° NW 04:08:13 10° NNE
Cosmos 1805 Rocket 3.5 03:59:27 10° S 04:03:54 85° E 04:08:24 10° N
deb Chang Zheng 4 3.4 03:59:43 10° NNE 04:04:06 88° WNW 04:08:28 10° SSW
COSMOS 2406 3.1 04:02:25 39° NW 04:04:40 78° WSW 04:10:26 10° SSE
SL-24 R/B 4.2 04:00:26 10° SSE 04:05:43 81° WSW 04:07:58 32° NNW
Cosmos 1937 Rocket 3.9 04:07:09 42° NW 04:07:09 42° NW 04:11:33 10° NNE
Cosmos 1666 Rocket 4.4 04:07:58 10° S 04:12:10 51° E 04:16:25 10° NNE
USA 305 3.4 04:16:57 42° SW 04:17:14 42° SW 04:21:17 10° SE
USA 229 DEB 4.3 04:13:57 22° NW 04:18:44 58° NE 04:26:13 10° ESE
USA 229 4.3 04:14:04 22° NW 04:18:50 57° NE 04:26:18 10° ESE
ATLAS 5 CENTAUR R/B 1.5 04:17:17 30° SW 04:19:17 83° SE 04:23:58 10° NE
RESURS DK-1 4.4 04:23:08 15° N 04:23:08 15° N 04:24:19 10° N
Nadezhda 3 Rocket 4.0 04:15:22 10° NNW 04:21:28 54° W 04:27:27 10° SSW
Cosmos 1689 Rocket 4.1 04:18:54 10° S 04:19:51 19° S 04:19:51 19° S
H-2A R/B 4.4 04:19:33 10° NE 04:22:56 29° E 04:26:18 10° SSE
NOSS 3-4 (A) 4.4 04:22:14 27° NW 04:23:56 31° NNW 04:29:49 10° NE
Cosmos 1242 Rocket 3.2 04:21:24 18° N 04:24:01 57° ENE 04:27:37 10° SSE
NOSS 3-4 (C) 4.4 04:22:20 27° NW 04:24:02 31° NNW 04:29:55 10° NE
USA 306 3.6 04:25:27 36° WSW 04:26:02 38° SW 04:30:01 10° SSE
CZ-2C R/B 3.9 04:21:04 10° SE 04:26:02 40° ENE 04:30:57 10° N
MOS 1 Rocket 3.5 04:21:19 10° SSE 04:26:23 86° ENE 04:31:46 10° NNW
NOSS 3-1 (C) 4.2 04:22:38 22° NW 04:27:48 73° NE 04:36:18 10° SE
Cosmos 1048 Rocket 4.1 04:28:12 31° NW 04:30:20 50° WSW 04:35:19 10° S
USA 81 4.2 04:25:22 10° S 04:30:36 76° E 04:35:54 10° N
ADEOS 3.9 04:27:05 10° N 04:31:59 42° WNW 04:36:52 10° SW
Cosmos 1633 Rocket 3.4 04:27:46 10° S 04:32:09 68° E 04:36:33 10° NNE
FENGYUN 3A 4.1 04:27:29 10° N 04:32:25 37° WNW 04:36:29 14° SW
NOSS 3-1 (A) 4.4 04:27:36 19° NW 04:32:56 59° NE 04:41:14 10° ESE
Cosmos 2263 Rocket 4.0 04:33:14 14° NNW 04:33:14 14° NNW 04:36:07 10° N
Cosmos 1125 Rocket 3.6 04:28:49 10° SSW 04:34:00 78° ESE 04:39:14 10° NNE
Meteor 1-27 Rocket 3.9 04:29:03 12° NNW 04:34:22 52° W 04:40:04 10° S
BREEZE-M DEB (TANK) 3.5 04:34:15 29° SW 04:35:24 43° S 04:40:06 10° ESE
Cosmos 1269 Rocket 4.2 04:33:15 13° NNW 04:38:02 74° ENE 04:43:18 10° SSE
Cosmos 962 Rocket 4.4 04:31:48 10° SSW 04:38:11 77° WNW 04:44:33 10° N
FALCON 9 DEB 3.2 04:37:59 47° NW 04:38:34 58° N 04:41:46 10° E
H-2A R/B 2.7 04:34:43 10° NNE 04:38:39 87° ESE 04:42:29 10° SSW
Cosmos 1844 4.3 04:37:52 28° W 04:39:30 34° NW 04:44:36 10° NNE
ATLAS 2AS CENTAUR R/B 3.7 04:39:48 23° WNW 04:43:42 36° NNW 04:50:37 10° NE
FALCON 9 DEB 3.1 04:43:29 42° NW 04:44:17 58° N 04:47:28 10° E
Cosmos 1356 3.5 04:42:06 10° SSW 04:45:24 48° WNW 04:48:45 10° N
PSLV R/B 3.8 04:42:27 10° NNE 04:46:17 78° ESE 04:50:00 10° S
SKYMED 2 4.4 04:44:27 10° SSW 04:48:11 28° W 04:48:45 27° W
SJ-12 4.4 04:45:30 10° N 04:49:14 36° WNW 04:52:57 10° SW
Cosmos 1707 Rocket 3.9 04:47:28 19° NNW 04:50:09 41° W 04:54:13 10° SSW
deb Kosmos-1763 3.9 04:48:55 22° NNW 04:51:10 81° WSW 04:54:46 10° SSE
CZ-4B DEB 4.5 04:47:35 10° NNE 04:53:05 72° ESE 04:58:33 10° S
Cosmos 372 Rocket 4.5 04:49:28 14° WSW 04:53:17 35° NW 04:58:00 10° NNE
Cosmos 2150 Rocket 4.0 04:48:29 10° SW 04:53:40 57° WNW 04:58:49 10° NNE
COSMOS 2455 3.2 04:49:17 15° WSW 04:54:01 44° NW 04:59:49 10° NNE
Cosmos 2154 Rocket 4.4 04:50:49 10° SW 04:56:36 39° WNW 05:02:29 10° N
Cosmos 2242 Rocket 4.2 04:52:28 10° N 04:56:50 57° ENE 05:01:10 10° SSE
Cosmos 2298 Rocket 4.2 04:52:05 10° SW 04:57:14 51° WNW 05:02:25 10° NNE
ALOS 3.6 04:54:06 10° NNW 04:56:56 20° NW 04:56:56 20° NW
Spot 2 4.4 04:54:40 10° NNE 04:59:50 89° WNW 05:04:48 10° SSW
ASTRO F (AKARI) 4.2 04:57:24 10° N 05:00:31 58° WNW 05:03:41 10° SSW
Meteor 1-19 Rocket 4.1 04:55:21 10° NNW 05:00:50 87° ENE 05:06:15 10° SSE
Cosmos 1833 Rocket 3.2 04:57:52 18° NW 05:01:24 37° WSW 05:06:29 10° S
Sich 1 3.6 04:57:47 10° SW 05:01:52 35° WNW 05:05:58 10° N
SL-8 Rocket 3.9 04:58:45 10° SSW 05:04:54 72° WNW 05:11:07 10° N
Okean 1 3.2 05:02:11 10° NNW 05:06:15 74° W 05:10:17 10° S
Cosmos 2082 Rocket 2.3 05:01:52 13° NW 05:06:54 58° WSW 05:12:29 10° S
Cosmos 1959 Rocket 4.5 05:01:47 10° SSW 05:08:04 81° W 05:14:28 10° N
SL-4 R/B 3.5 05:06:43 15° WSW 05:08:25 20° SW 05:11:10 10° S
FALCON 9 DEB 3.0 05:07:03 24° WNW 05:08:50 69° NNE 05:12:04 10° E
USA 290 2.8 05:07:38 22° NW 05:09:14 37° WSW 05:12:15 10° S
Cosmos 1703 Rocket 4.0 05:05:02 10° N 05:09:21 62° ENE 05:13:38 10° SSE
CZ-4B R/B 3.7 05:07:27 10° NNE 05:12:49 63° ESE 05:18:15 10° S
Meteor 1-18 Rocket 4.2 05:08:17 10° NNW 05:13:58 75° W 05:19:32 10° S
Cosmos 1602 3.7 05:11:20 10° SSW 05:15:16 70° WNW 05:19:13 10° N
Lacrosse 5 2.6 05:12:41 16° WNW 05:16:23 41° N 05:21:11 10° ENE
CZ-4 R/B 4.5 05:13:35 10° NE 05:16:29 18° E 05:19:20 10° SE
PAYLOAD B 4.2 05:13:05 10° NNE 05:18:38 89° WNW 05:24:08 10° SSW
Cosmos 1470 Rocket 3.5 05:14:58 10° SSW 05:19:20 71° WNW 05:23:42 10° N
Cosmos 1818 3.8 05:14:54 10° SSW 05:20:19 78° SE 05:25:49 10° NE
Cosmos 1727 Rocket 4.0 05:14:26 10° NNW 05:20:46 76° W 05:27:06 10° S
Meteor 1-25 Rocket 4.2 05:16:57 10° SSW 05:22:27 62° WNW 05:28:00 10° N
Cosmos 2341 Rocket 4.3 05:17:19 10° SW 05:23:12 43° WNW 05:29:10 10° N
ERBS 2.3 05:21:36 16° NW 05:24:09 77° NNE 05:27:28 10° ESE
CZ-4B R/B 4.2 05:23:08 10° N 05:26:39 23° WNW 05:30:06 10° WSW
Cosmos 909 Rocket 4.2 05:20:23 10° NW 05:26:42 89° ENE 05:33:35 10° SE
Cosmos 2285 Rocket 4.5 05:24:13 10° S 05:30:36 70° ESE 05:37:00 10° NNE
NOSS 2-1 (C) 3.1 05:28:14 10° SW 05:31:32 74° SE 05:35:07 10° NE
Cosmos 1437 3.5 05:32:53 10° N 05:35:44 46° ENE 05:38:36 10° SSE
Okean O Rocket 1.6 05:32:09 10° NNE 05:36:38 82° WNW 05:41:06 10° SSW
Cosmos 2278 Rocket 2.5 05:31:32 10° WSW 05:36:56 44° NW 05:42:22 10° NNE
CZ-4C R/B 3.6 05:32:19 11° WNW 05:37:01 27° N 05:42:48 10° NE
NOSS 2-1 (D) 3.0 05:33:45 10° SW 05:37:04 84° SE 05:40:40 10° NE
Envisat 3.2 05:32:29 10° N 05:37:22 47° WNW 05:42:12 10° SW
Cosmos 1862 Rocket 4.5 05:33:35 10° NNW 05:37:22 28° W 05:41:06 10° SSW
FALCON 9 DEB 2.9 05:35:47 12° WNW 05:38:43 82° SSW 05:41:56 10° ESE
DMSP B5D2-2 4.1 05:35:15 10° S 05:40:27 71° WSW 05:45:41 10° NNW
NOAA 6 4.2 05:35:52 10° N 05:40:48 50° WNW 05:45:44 10° SW
YAOGAN 6 3.4 05:39:43 10° N 05:42:45 28° WNW 05:45:45 10° SW
Cosmos 2227 Rocket 4.4 05:42:50 10° N 05:44:35 11° NNE 05:46:20 10° NE
Cosmos 1666 3.6 05:41:25 10° S 05:45:05 53° E 05:48:48 10° NNE
SL-24 R/B 4.2 05:41:19 10° NNE 05:45:53 87° ESE 05:50:11 10° SSW
SMAP 3.1 05:41:24 10° N 05:46:00 60° WNW 05:50:35 10° SSW
Cosmos 1238 Rocket 2.2 05:45:01 10° S 05:47:56 78° E 05:51:02 10° NNE
Cosmos 1844 Rocket 4.3 05:44:56 10° WNW 05:48:08 15° NNW 05:51:21 10° N
Cosmos 1933 Rocket 3.7 05:44:32 10° SSW 05:48:53 53° WNW 05:53:16 10° N
Cosmos 1500 3.1 05:46:40 10° SSW 05:50:23 63° WNW 05:54:10 10° N
Cosmos 1943 Rocket 3.1 05:47:47 10° S 05:53:07 55° ESE 05:58:31 10° NE
BREEZE-M (TANK) 3.0 05:50:21 10° WSW 05:54:41 45° SSE 05:56:46 10° E
Meteor 1-13 Rocket 4.3 05:51:25 10° NNW 05:57:03 87° ENE 06:02:35 10° SSE
